RH
93 92 85 89 95 96 89 85 84 70 83 85 69 39 37 35 35 41 48 61 66 67 68 60 61 49 49 51 51 54 55 58 61 66 81 93 84 79 77 80 80 81 84
79 82 97 94 87 88 97 97 91 90 79 78 87 75 42 38 36 36 41 51 61 68 69 69 64 68 54 49 50 49 51 55 59 66 86 87 80 82 77 81 86 87 87
44 68 82 96 93 90 88 89 96 100 94 90 74 83 79 54 37 36 37 40 54 62 68 68 69 65 60 61 60 66 79 85 69 84 93 93 83 81 80 72 75 85 82
20 24 37 69 89 99 96 94 86 88 96 95 93 84 86 81 68 42 39 37 39 51 59 64 65 65 66 63 57 60 86 91 97 84 88 87 83 82 85 81 72 74 77
27 24 20 23 38 80 98 99 99 98 94 90 90 87 89 93 86 77 53 41 39 39 45 59 63 63 64 67 60 57 50 60 69 87 85 86 84 85 88 84 71 74 76
31 32 29 24 20 23 49 92 98 98 99 100 99 95 84 88 95 93 82 66 55 43 45 52 60 64 67 68 65 63 55 49 54 62 72 76 81 85 87 86 74 72 74
38 36 35 33 30 26 20 27 75 91 95 100 99 98 99 97 95 89 94 85 76 67 52 53 52 56 60 68 68 66 65 58 52 56 61 60 66 73 82 84 81 74 66
41 41 40 39 38 36 33 24 24 70 90 96 99 98 100 99 96 79 86 90 82 80 77 79 70 61 55 58 59 65 68 66 64 60 63 68 65 67 71 74 78 79 83
43 43 43 42 42 42 40 36 27 25 64 87 90 98 98 94 91 90 79 79 79 78 79 81 83 85 76 72 64 65 68 69 69 67 66 65 69 67 67 72 77 84 89
50 51 54 52 52 50 47 42 37 30 28 59 92 95 90 99 97 90 88 84 80 76 75 75 79 81 86 84 80 79 77 75 73 72 72 74 71 71 70 73 71 78 81
75 78 77 70 64 62 55 52 49 41 32 34 71 96 98 89 98 100 99 94 86 89 81 78 70 70 75 83 85 78 75 75 76 77 79 78 78 76 75 77 79 79 84
78 84 89 86 81 76 68 62 54 51 42 36 40 72 97 100 99 99 100 92 95 88 77 80 83 80 80 84 76 83 84 81 74 71 74 82 78 76 78 75 79 81 85
79 81 86 88 87 83 74 72 66 58 49 45 40 39 58 74 91 97 95 100 97 99 84 82 81 78 74 80 80 84 79 80 94 82 72 78 81 80 81 77 75 76 79
79 80 85 89 89 87 81 79 73 63 58 48 44 39 39 57 51 67 80 93 98 97 94 84 71 66 73 70 77 85 90 84 77 86 84 84 78 81 82 78 77 74 70
81 82 88 92 89 90 88 81 73 63 60 51 48 52 55 47 43 42 46 55 70 87 78 76 76 64 61 68 76 84 78 74 84 82 84 85 84 84 75 70 69 81 83
85 78 79 93 99 98 93 88 77 70 61 54 55 57 57 59 61 61 59 60 63 68 92 92 85 80 73 77 74 89 83 87 90 86 83 87 82 86 90 91 92 81 100
90 82 74 85 93 91 93 84 71 67 64 56 53 51 49 49 56 65 69 76 76 78 91 97 88 83 78 64 72 81 95 99 88 82 82 95 88 78 88 100 99 98 100
96 92 78 71 82 84 85 74 71 71 72 69 81 81 79 78 75 74 73 73 72 71 74 78 78 78 76 73 77 96 96 99 99 95 90 91 99 92 98 100 96 99 97
94 97 91 74 66 75 76 73 71 72 73 71 70 68 65 62 59 56 50 47 46 45 48 69 76 77 64 58 71 74 89 92 100 100 97 97 99 100 100 99 97 100 90
99 99 97 96 86 74 69 68 66 63 61 59 57 54 52 53 52 54 55 57 65 74 74 78 66 67 76 66 72 77 74 77 76 92 83 94 100 99 100 100 100 98 93
88 86 88 93 98 97 90 86 84 79 74 73 71 71 71 71 70 78 88 83 87 84 82 99 100 100 99 94 89 83 94 86 87 92 96 96 100 100 100 100 99 100 90
88 89 88 87 84 81 79 78 75 73 71 69 68 67 68 70 72 75 79 86 83 81 83 100 99 100 98 86 99 100 100 100 100 100 100 99 100 100 100 98 100 93 98
86 87 87 88 88 88 84 81 78 77 76 74 75 75 80 85 87 94 99 100 100 100 99 98 100 99 99 100 98 98 100 98 100 100 96 93 100 100 100 100 100 100 99
70 76 92 99 100 98 91 85 83 92 98 99 98 98 98 98 98 98 98 98 98 100 97 99 99 95 98 100 100 100 98 100 99 100 99 100 100 100 100 100 100 100 100
56 54 59 71 81 88 95 93 99 100 100 98 98 96 95 96 94 83 87 98 99 98 99 99 99 98 100 100 99 100 99 98 100 99 98 100 100 99 100 99 97 95 89
39 44 44 42 38 41 57 68 79 86 90 90 92 90 87 88 91 93 95 97 100 100 100 98 99 99 97 86 68 80 76 84 82 65 71 78 77 84 70 68 87 82 88
Wind_Speed
20 19 22 22 21 20 20 20 20 21 20 19 19 19 18 18 18 18 17 15 15 14 13 12 13 11 10 10 10 10 10 10 8 8 7 8 7 8 7 6 6 6 8
24 23 22 23 24 24 23 23 23 22 22 23 22 21 21 21 21 22 21 20 18 17 16 15 14 15 14 13 13 13 12 12 11 10 9 10 10 10 9 9 10 9 9
26 25 26 25 25 24 25 26 26 27 26 24 27 26 25 24 25 24 25 24 22 20 20 19 17 16 16 15 15 16 16 15 13 12 13 13 12 13 13 12 11 12 11
27 28 29 28 27 25 27 28 28 29 29 30 29 29 30 29 27 27 26 27 26 24 22 22 21 20 19 18 17 17 17 18 17 15 15 15 14 15 14 12 12 11 12
24 27 30 32 30 30 30 25 28 28 30 31 31 33 34 33 31 30 31 29 27 26 26 25 24 23 22 21 20 20 19 18 18 16 17 18 17 17 16 15 13 12 13
25 25 27 30 32 34 33 31 30 28 30 31 30 31 33 34 33 33 34 31 29 28 27 28 26 27 25 25 24 23 22 21 20 19 18 18 19 19 17 17 15 14 15
30 30 28 28 30 33 35 35 32 31 29 31 30 30 34 32 26 35 38 36 31 27 27 30 30 30 29 27 26 25 24 23 23 22 20 21 20 19 18 19 17 17 16
34 34 33 31 30 31 33 34 35 35 35 30 31 31 21 18 25 25 31 38 35 28 26 29 33 33 31 30 29 27 27 26 26 25 24 22 21 21 19 20 19 17 14
36 34 33 32 31 32 33 32 34 36 36 36 33 30 13 13 13 15 19 27 31 31 33 32 30 32 34 33 32 30 30 30 29 28 28 26 25 23 22 21 21 21 22
33 31 31 32 32 32 34 34 33 35 36 38 36 35 31 31 21 14 16 18 19 21 23 26 28 27 27 29 34 35 34 32 32 31 31 30 28 27 26 24 23 23 24
19 21 26 31 32 32 33 32 32 34 35 37 36 35 36 30 30 33 25 25 29 26 26 24 22 24 23 25 26 24 25 29 32 34 33 32 31 30 28 27 26 25 26
18 21 24 28 29 29 31 30 30 32 33 34 37 35 33 28 26 25 27 30 33 34 32 33 33 32 36 35 33 28 28 31 24 27 34 34 32 31 30 29 26 26 27
19 23 21 22 23 25 26 26 27 29 32 32 33 35 35 36 32 30 30 28 29 28 31 30 29 30 33 34 40 40 38 31 31 29 25 34 33 31 32 30 26 26 25
19 18 19 18 18 20 22 23 25 26 27 30 30 29 31 32 32 32 30 27 25 26 27 33 34 35 31 31 30 27 31 33 33 29 28 30 33 32 31 28 26 27 27
19 20 19 17 17 19 20 22 24 24 25 27 27 26 27 27 28 31 32 31 30 29 33 31 33 34 34 33 29 29 32 32 38 37 33 29 28 35 37 39 37 36 30
15 15 14 14 14 15 16 17 19 19 21 24 23 22 22 22 23 25 26 27 28 31 35 28 32 34 33 34 36 34 33 31 31 33 35 33 30 33 37 40 45 45 44
13 13 11 10 10 9 11 12 11 13 16 18 20 22 22 21 22 23 24 25 28 30 33 35 35 35 36 39 40 38 35 38 38 36 36 34 35 34 39 40 41 38 35
13 12 11 8 6 5 6 9 8 9 10 12 12 12 12 14 16 18 21 23 25 26 28 34 32 32 31 33 37 35 33 34 37 37 37 38 36 38 39 40 34 31 33
10 11 10 8 6 4 4 8 10 10 10 12 15 17 19 21 23 24 24 27 28 29 30 33 38 35 35 32 34 38 38 39 35 33 31 34 38 39 40 42 43 35 35
7 6 7 7 6 5 5 8 11 13 14 16 17 18 19 20 21 23 24 26 26 27 28 32 36 38 34 35 34 37 41 39 44 42 35 35 33 38 38 36 37 34 34
9 7 6 6 6 7 7 7 8 10 11 12 13 15 16 17 19 21 23 25 25 27 28 29 30 30 29 28 32 34 38 35 40 39 41 41 35 36 32 29 30 29 32
8 8 7 7 6 5 5 6 8 9 10 12 14 15 16 17 18 18 20 23 26 28 29 28 32 29 31 29 33 36 38 32 28 27 24 19 16 16 19 25 28 25 27
11 9 8 8 8 7 8 9 10 11 12 13 14 16 17 16 16 15 15 14 16 19 21 22 24 26 27 25 28 26 13 21 17 17 23 22 15 12 18 21 19 25 26
13 13 13 12 12 10 8 7 7 7 8 8 9 9 11 11 12 12 14 16 17 15 16 13 12 15 14 11 13 13 15 10 10 12 9 6 7 7 9 9 8 8 13
10 10 11 11 11 10 10 10 7 6 7 7 6 7 9 12 12 13 12 12 12 11 10 13 10 8 8 9 9 11 8 7 8 8 9 8 8 13 16 17 17 18 18
9 9 9 10 10 10 10 10 9 9 8 8 8 8 9 8 8 8 9 8 8 8 7 8 10 14 18 20 21 19 17 16 16 16 13 11 15 16 10 14 14 13 14
Wind_Direction
257 261 266 266 261 260 261 263 261 257 257 259 259 257 256 257 253 249 249 249 246 246 250 247 255 257 258 262 266 269 271 272 274 273 279 297 304 307 308 307 309 313 325
259 256 260 260 261 263 262 262 263 262 261 260 259 258 257 255 255 254 249 249 249 250 250 252 254 256 262 265 266 269 267 267 268 273 278 296 309 308 301 296 292 296 303
261 259 257 254 260 261 263 263 264 264 261 259 257 256 255 256 255 253 253 251 248 251 253 254 255 260 263 264 266 266 269 270 265 270 284 286 290 291 293 290 285 280 285
262 262 260 257 255 257 260 260 261 264 264 260 257 257 256 255 256 255 254 253 251 250 253 255 256 257 262 266 269 267 265 265 265 264 272 277 278 278 279 284 281 277 276
268 265 262 261 258 256 254 262 262 261 266 267 263 260 256 256 254 255 253 252 252 253 254 254 256 257 258 261 266 268 270 268 268 261 264 268 272 275 276 280 281 274 271
266 271 266 263 260 258 255 253 257 265 263 267 270 270 271 260 253 257 256 255 251 251 256 258 257 257 258 259 261 264 266 266 266 266 264 264 267 271 275 278 282 275 268
267 268 270 267 261 258 256 254 254 255 269 261 271 274 273 270 264 261 256 254 253 253 257 260 260 259 259 260 261 261 264 266 265 265 265 265 266 268 268 271 278 285 271
270 272 271 269 264 260 257 252 249 250 253 260 261 259 274 272 271 268 250 260 256 254 263 265 262 263 262 261 262 264 265 265 265 266 267 267 265 265 265 266 267 271 268
267 269 270 271 268 262 258 255 249 245 249 253 251 256 256 257 268 256 256 252 259 260 262 263 273 265 263 264 265 265 265 265 265 265 265 266 266 266 263 263 264 262 262
268 267 266 266 267 262 258 256 253 247 243 246 251 252 257 258 260 263 261 263 268 268 265 265 267 266 269 264 265 267 268 267 266 265 264 263 263 263 264 262 260 258 260
269 270 272 269 266 259 254 254 255 251 246 245 245 251 255 256 260 267 270 270 266 266 264 267 266 270 260 268 270 269 272 268 262 262 263 263 263 261 262 263 260 258 257
289 285 283 276 266 255 247 250 252 251 249 247 246 245 250 253 252 257 265 277 272 275 273 269 271 268 273 269 272 269 270 266 266 263 256 256 259 260 258 259 257 252 255
299 292 286 280 265 250 244 248 253 253 251 251 250 250 250 252 259 261 263 264 270 274 276 276 274 268 276 269 269 263 264 272 270 262 265 254 252 254 255 255 253 253 253
303 297 290 279 269 250 240 244 252 254 252 251 253 252 253 254 257 260 264 267 271 272 275 275 279 271 275 277 276 267 267 259 264 261 263 260 253 252 251 252 254 258 257
307 300 295 282 265 252 249 253 253 252 251 245 251 249 249 253 256 259 261 264 264 268 272 273 277 281 276 274 281 272 272 270 259 258 259 258 256 252 251 251 254 264 259
321 316 298 287 274 260 251 248 251 251 251 243 248 249 249 254 257 258 260 262 261 263 269 268 271 275 274 274 269 272 274 263 264 265 260 255 264 261 258 256 255 253 255
325 331 325 306 289 272 251 240 249 250 252 246 250 258 257 258 262 263 264 265 266 266 266 272 273 276 277 275 271 268 265 261 268 261 261 257 254 250 260 258 255 252 247
327 333 338 336 314 297 257 243 254 259 256 246 250 253 256 257 261 266 269 270 271 275 278 281 283 282 282 281 282 279 273 269 265 262 261 254 258 260 258 250 239 241 247
333 329 337 337 330 306 251 234 237 242 247 249 253 260 266 269 271 273 273 274 276 277 277 278 282 283 281 284 277 274 274 277 274 267 265 264 257 259 257 257 236 246 246
343 328 331 331 325 311 285 262 258 260 261 263 265 268 271 273 274 275 272 272 273 277 282 284 284 283 281 281 280 276 274 280 274 276 271 269 257 252 251 241 236 246 251
348 353 347 318 296 287 287 284 278 279 281 280 277 276 277 278 276 275 278 280 280 281 281 279 279 280 280 283 281 288 281 279 275 276 279 264 269 245 237 240 244 252 253
344 335 333 333 332 325 322 311 301 291 285 284 285 282 281 282 280 280 279 277 278 278 280 284 282 280 285 279 281 284 277 277 271 269 242 257 240 259 263 258 255 247 254
25 21 10 347 323 314 307 305 301 297 294 294 296 295 293 290 287 291 296 301 299 297 295 294 286 280 276 275 283 293 274 271 265 272 275 276 260 227 220 220 225 229 231
15 15 20 22 17 16 8 352 326 323 317 316 325 340 335 324 310 303 299 297 296 296 296 301 300 294 284 295 297 297 300 303 280 277 272 252 245 224 230 243 258 269 234
360 0 5 6 6 18 29 25 17 1 354 343 337 345 344 338 323 311 303 293 285 286 297 307 316 325 332 341 335 337 317 335 327 320 325 330 302 295 296 296 296 296 295
333 338 341 341 342 344 349 356 3 5 1 358 356 351 352 349 349 346 351 335 313 306 314 318 310 303 304 313 309 302 301 302 304 299 290 285 274 278 283 275 260 255 260